Woodward, OK

11:26 AM CDT on July 28, 2017 (GMT -0500)
West Woodward

Weather History for KWWR - January, 2013

Change the Weather History Date:

Tuesday, January 29, 2013

  Actual Average (KGAG) Record (KGAG)
Temperature  
Mean Temperature 46 °F -  
Max Temperature 59 °F 47 °F 78 °F (1971)
Min Temperature 33 °F 21 °F -4 °F (1966)
Degree Days  
Heating Degree Days 19    
Moisture  
Dew Point 33 °F    
Average Humidity 67    
Maximum Humidity 87    
Minimum Humidity 34    
Precipitation  
Precipitation 0.00 in - - ()
Sea Level Pressure  
Sea Level Pressure 29.65 in    
Wind  
Wind Speed 11 mph (NW)    
Max Wind Speed 21 mph    
Max Gust Speed 28 mph    
Visibility 10 miles    
Events Rain    
Averages and records for this station are not official NWS values.
T = Trace of Precipitation, MM = Missing Value Source: NWS Daily Summary

Daily Weather History Graph

Daily Weather History Graph

Search for Another Location

Airport or City:

Trip Planner

Search our weather history database for the weather conditions in past years. The results will help you decide how hot, cold, wet, or windy it might be!

Date:

Astronomy

Jan. 29, 2013 Rise Set
Actual Time 7:41 AM CST 6:01 PM CST
Civil Twilight 7:14 AM CST 6:28 PM CST
Nautical Twilight 6:43 AM CST 6:59 PM CST
Astronomical Twilight 6:12 AM CST 7:30 PM CST
Moon 8:52 PM CST (1/29) 8:45 AM CST (1/29)
Length of Visible Light 11h 14m
Length of Day
10h 19m
Waning Gibbous, 93% of the Moon is Illuminated
Jan 29
Waning Gibbous
Feb 3
Last Quarter
Feb 10
New
Feb 17
First Quarter
Feb 25
Full

Hourly Weather History & Observations

Time (CST) Temp. Windchill Dew Point Humidity Pressure Visibility Wind Dir Wind Speed Gust Speed Precip Events Conditions
12:15 AM 59.0 °F - 32.0 °F 36% 29.69 in 10.0 mi SSW 11.5 mph - N/A   Clear
12:35 AM 59.0 °F - 32.0 °F 36% 29.69 in 10.0 mi SSW 13.8 mph - N/A   Clear
12:55 AM 59.0 °F - 32.0 °F 36% 29.69 in 10.0 mi SW 12.7 mph - N/A   Clear
1:15 AM 57.2 °F - 32.0 °F 38% 29.68 in 10.0 mi SW 8.1 mph - N/A   Clear
1:35 AM 55.4 °F - 32.0 °F 41% 29.68 in 10.0 mi SSW 9.2 mph - N/A   Clear
1:55 AM 55.4 °F - 32.0 °F 41% 29.69 in 10.0 mi South 11.5 mph - N/A   Mostly Cloudy
2:15 AM 57.2 °F - 32.0 °F 38% 29.67 in 10.0 mi SSW 9.2 mph - N/A   Overcast
2:35 AM 55.4 °F - 32.0 °F 41% 29.67 in 10.0 mi SSW 6.9 mph - N/A   Mostly Cloudy
2:55 AM 55.4 °F - 32.0 °F 41% 29.68 in 10.0 mi SSW 8.1 mph - N/A   Scattered Clouds
3:15 AM 55.4 °F - 32.0 °F 41% 29.67 in 10.0 mi SW 9.2 mph - N/A   Mostly Cloudy
3:35 AM 55.4 °F - 32.0 °F 41% 29.69 in 10.0 mi South 10.4 mph - N/A   Overcast
3:55 AM 57.2 °F - 32.0 °F 38% 29.67 in 10.0 mi SSW 9.2 mph - N/A   Overcast
4:15 AM 59.0 °F - 30.2 °F 34% 29.68 in 10.0 mi South 13.8 mph - N/A   Overcast
4:35 AM 59.0 °F - 30.2 °F 34% 29.67 in 10.0 mi SW 8.1 mph - N/A   Overcast
4:55 AM 53.6 °F - 32.0 °F 44% 29.70 in 10.0 mi West 9.2 mph - N/A   Overcast
5:15 AM 55.4 °F - 32.0 °F 41% 29.68 in 10.0 mi West 5.8 mph - N/A   Overcast
5:35 AM 53.6 °F - 32.0 °F 44% 29.68 in 10.0 mi West 4.6 mph - N/A   Overcast
5:55 AM 48.2 °F - 33.8 °F 58% 29.68 in 10.0 mi North 6.9 mph - N/A   Overcast
6:15 AM 44.6 °F 40.2 °F 35.6 °F 71% 29.67 in 10.0 mi North 8.1 mph - N/A   Overcast
6:35 AM 42.8 °F 39.3 °F 35.6 °F 76% 29.66 in 10.0 mi North 5.8 mph - N/A   Overcast
6:55 AM 42.8 °F 38.6 °F 35.6 °F 76% 29.66 in 10.0 mi NNW 6.9 mph - N/A   Overcast
7:15 AM 41.0 °F 39.0 °F 35.6 °F 81% 29.65 in 10.0 mi NNW 3.5 mph - N/A   Overcast
7:35 AM 41.0 °F - 35.6 °F 81% 29.64 in 10.0 mi Calm Calm - N/A   Overcast
7:55 AM 41.0 °F 37.1 °F 35.6 °F 81% 29.63 in 10.0 mi WNW 5.8 mph - N/A   Mostly Cloudy
8:15 AM 39.2 °F 37.0 °F 35.6 °F 87% 29.63 in 10.0 mi WNW 3.5 mph - N/A   Scattered Clouds
8:35 AM 41.0 °F 36.4 °F 35.6 °F 81% 29.65 in 10.0 mi NW 6.9 mph - N/A   Scattered Clouds
8:55 AM 41.0 °F 36.4 °F 35.6 °F 81% 29.66 in 10.0 mi NW 6.9 mph - N/A   Mostly Cloudy
9:15 AM 41.0 °F 33.9 °F 37.4 °F 87% 29.66 in 10.0 mi NW 12.7 mph - N/A   Overcast
9:35 AM 42.8 °F 37.0 °F 37.4 °F 81% 29.65 in 10.0 mi NNW 10.4 mph - N/A   Overcast
9:55 AM 42.8 °F 36.6 °F 35.6 °F 76% 29.66 in 10.0 mi NNW 11.5 mph - N/A   Overcast
10:15 AM 42.8 °F 37.0 °F 37.4 °F 81% 29.65 in 10.0 mi NNW 10.4 mph - N/A   Overcast
10:35 AM 44.6 °F 39.2 °F 35.6 °F 71% 29.65 in 10.0 mi NNW 10.4 mph - N/A   Overcast
10:55 AM 44.6 °F 39.7 °F 35.6 °F 71% 29.63 in 10.0 mi NW 9.2 mph - N/A   Overcast
11:15 AM 44.6 °F 39.7 °F 35.6 °F 71% 29.64 in 10.0 mi NNW 9.2 mph - N/A   Overcast
11:35 AM 46.4 °F 41.1 °F 35.6 °F 66% 29.64 in 10.0 mi NW 11.5 mph - N/A   Mostly Cloudy
11:55 AM 46.4 °F 41.5 °F 35.6 °F 66% 29.60 in 10.0 mi NNW 10.4 mph - N/A   Scattered Clouds
12:15 PM 44.6 °F 39.7 °F 35.6 °F 71% 29.60 in 10.0 mi North 9.2 mph - N/A   Mostly Cloudy
12:35 PM 44.6 °F 40.2 °F 35.6 °F 71% 29.62 in 10.0 mi NNW 8.1 mph - N/A   Overcast
12:55 PM 44.6 °F 39.7 °F 35.6 °F 71% 29.61 in 10.0 mi NNW 9.2 mph - N/A   Overcast
1:15 PM 44.6 °F 39.2 °F 35.6 °F 71% 29.62 in 10.0 mi WNW 10.4 mph - N/A   Overcast
1:35 PM 44.6 °F 39.2 °F 35.6 °F 71% 29.58 in 10.0 mi NNW 10.4 mph - N/A Rain Light Rain
1:55 PM 44.6 °F 39.2 °F 35.6 °F 71% 29.59 in 10.0 mi NW 10.4 mph - N/A   Mostly Cloudy
2:15 PM 44.6 °F 38.1 °F 33.8 °F 66% 29.56 in 10.0 mi NNW 13.8 mph 18.4 mph N/A   Overcast
2:35 PM 42.8 °F 36.6 °F 33.8 °F 70% 29.58 in 10.0 mi NNW 11.5 mph - N/A   Overcast
2:55 PM 42.8 °F 38.0 °F 32.0 °F 66% 29.59 in 10.0 mi NNW 8.1 mph - N/A   Overcast
3:15 PM 42.8 °F 38.6 °F 32.0 °F 66% 29.60 in 10.0 mi NW 6.9 mph - N/A   Overcast
3:35 PM 42.8 °F 37.5 °F 32.0 °F 66% 29.60 in 10.0 mi North 9.2 mph - N/A   Overcast
3:55 PM 42.8 °F 38.0 °F 32.0 °F 66% 29.60 in 10.0 mi North 8.1 mph - N/A   Overcast
4:15 PM 42.8 °F 36.6 °F 32.0 °F 66% 29.58 in 10.0 mi NNW 11.5 mph - N/A   Overcast
4:35 PM 42.8 °F 36.6 °F 32.0 °F 66% 29.60 in 10.0 mi NNW 11.5 mph - N/A   Overcast
4:55 PM 41.0 °F 34.3 °F 32.0 °F 70% 29.60 in 10.0 mi NNW 11.5 mph - N/A   Overcast
5:15 PM 41.0 °F 33.5 °F 32.0 °F 70% 29.62 in 10.0 mi NNW 13.8 mph - N/A   Overcast
5:35 PM 41.0 °F 33.5 °F 32.0 °F 70% 29.61 in 10.0 mi NNW 13.8 mph - N/A   Overcast
5:55 PM 41.0 °F 33.1 °F 32.0 °F 70% 29.61 in 10.0 mi NNW 15.0 mph 19.6 mph N/A   Overcast
6:15 PM 39.2 °F 31.6 °F 32.0 °F 75% 29.62 in 10.0 mi NNW 12.7 mph - N/A   Overcast
6:35 PM 39.2 °F 30.5 °F 32.0 °F 75% 29.63 in 10.0 mi NNW 16.1 mph - N/A   Overcast
6:55 PM 39.2 °F 30.5 °F 30.2 °F 70% 29.65 in 10.0 mi NNW 16.1 mph 20.7 mph N/A   Overcast
7:15 PM 37.4 °F 28.5 °F 30.2 °F 75% 29.66 in 10.0 mi NNW 15.0 mph 19.6 mph N/A   Overcast
7:35 PM 37.4 °F 28.2 °F 32.0 °F 81% 29.67 in 10.0 mi NW 16.1 mph 24.2 mph N/A   Overcast
7:55 PM 35.6 °F 25.2 °F 32.0 °F 87% 29.67 in 10.0 mi NNW 18.4 mph 26.5 mph N/A   Overcast
8:15 PM 35.6 °F 25.5 °F 32.0 °F 87% 29.68 in 10.0 mi NNW 17.3 mph 24.2 mph N/A   Overcast
8:35 PM 35.6 °F 25.5 °F 32.0 °F 87% 29.69 in 10.0 mi NNW 17.3 mph 23.0 mph N/A   Overcast
8:55 PM 35.6 °F 25.9 °F 32.0 °F 87% 29.70 in 10.0 mi NNW 16.1 mph 27.6 mph N/A   Overcast
9:15 PM 35.6 °F 24.5 °F 32.0 °F 87% 29.69 in 10.0 mi NNW 20.7 mph 26.5 mph N/A   Overcast
9:35 PM 35.6 °F 24.5 °F 32.0 °F 87% 29.71 in 10.0 mi NNW 20.7 mph 26.5 mph N/A   Overcast
9:55 PM 35.6 °F 25.5 °F 30.2 °F 81% 29.72 in 10.0 mi NNW 17.3 mph 23.0 mph N/A   Overcast
10:15 PM 33.8 °F 23.9 °F 30.2 °F 87% 29.73 in 10.0 mi NNW 15.0 mph 25.3 mph N/A   Overcast
10:35 PM 33.8 °F 23.2 °F 30.2 °F 87% 29.73 in 10.0 mi NNW 17.3 mph 23.0 mph N/A   Overcast
10:55 PM 33.8 °F 23.9 °F 30.2 °F 87% 29.74 in 10.0 mi NNW 15.0 mph - N/A   Overcast
11:15 PM 33.8 °F 23.9 °F 30.2 °F 87% 29.75 in 10.0 mi NNW 15.0 mph 18.4 mph N/A   Overcast